STARLINK-36924, 68054

Orbit data source: Space-Track

STARLINK-36924, 68054 is a payload satellite owned by SpaceX/Seattle (US) in LEO that was launched on Mon, 02 Mar 2026 UTC via an FALCON 9 launch vehicle from the Air Force Eastern Test Range (AFETR). Payload-class satellites include a variety of spacecraft equipped with specific instruments for various scientific and technological missions. These include communications satellites like Starlink; space stations such as the ISS; scientific satellites like the Hubble; Earth observation satellites from companies like Planet Labs, Umbra, and HawkEye 360; GPS; miniature CubeSats for education and research; and military/defense satellites.

Loading next visibility...
Identifier
68054, 2026-041Q
Orbit
LEO
Country
Flag of USUS
Related business
Manufacturer
SpaceX/Seattle
Mission
Operational Commercial Communications
Bus & Motor
STARLINK V2MO, Unknown motor
Mass
575 kg wet, ~530 kg dry
Launch date (UTC)
2026-03-02 (2 months ago)
Launch vehicle
FALCON 9
Launch site
Air Force Eastern Test Range (AFETR)
Object type
Payload
Rocket body
Debris
Shape & HBR
Box + 2 Pan, 17.7 m
Radar Cross Section
36.964 m²

Expand to show TLE details & history
Last TLE update: 8 hours ago

TLE from 8 hours ago
0 STARLINK-36924
1 68054U 26041Q   26119.17566774  .00051943  00000-0  93488-3 0  9995
2 68054  53.1580 174.9893 0001779  79.1805 280.9404 15.49336021  9125
Epoch: 2026-04-29T04:12Z
TLE epoch observation values (Epoch: 2026-04-29T04:12:57.692Z)
Latitude
-0.00005°
Longitude
-105.39152°
Altitude
419.345 km
Speed
7.661 km/s
True Right ascension
11h 39m 57s
True Declination
0° 00' 00"
Sunlit
Object was in full shadow at epoch
Visualization orbit readout
Latitude
Unknown
Longitude
Unknown
Altitude
Unknown
Speed
Unknown
Apparent Right ascension
Unknown
Apparent Declination
Unknown
Sunlit
N/A
Visualization observer readout
Local Sidereal Time
19:24:48
Azimuth
Unknown
Elevation
Unknown
Doppler factor
Unknown
Orbital elements
Apogee altitude
420.135 km
Perigee altitude
417.717 km
Semi-major axis
6,797.063 km
Eccentricity
0.00018
Inclination
53.158°
RAAN
174.9893°
Arg. of periapsis
79.1805°
True anomaly
280.92038°
Mean anomaly
280.9404°
Eccentric anomaly
280.93039°
Mean motion
3.87312 °/min
Orbital period
92.95 mins
BSTAR
0.00093488
Loading maneuver chart data...
Computing Atmospheric mass density...
Loading historical data...
Loading historical data...
Loading historical data...
Loading historical data...
Loading historical data...
Loading historical data...
Loading historical data...

Documentation

Showing up to 5 results
|